Tracking 26321 objects as of 27-Nov-2022
HD Live streaming from Space Station
objects crossing your sky now

STARLINK-3883

Track STARLINK-3883 now!
10-day predictions
STARLINK-3883 is classified as:


NORAD ID: 52493
Int'l Code: 2022-049AU
Perigee: 545.3 km
Apogee: 548.4 km
Inclination: 53.2 °
Period: 95.4 minutes
Semi major axis: 6917 km
RCS: Unknown
Launch date: May 6, 2022
Source: United States (US)
Launch site: AIR FORCE EASTERN TEST RANGE (AFETR)
aabbcc
Your satellite tracking list
Your tracking list is empty




NASA's NSSDC Master Catalog

Two Line Element Set (TLE):
1 52493U 22049AU  22330.48877268  .00005468  00000-0  36124-3 0  9992
2 52493  53.2183  32.5523 0002263  42.0608 318.0557 15.08854237 31354
Source of the keplerian elements: AFSPC